Home   Weather   Emsdetten   Past weeks

Flag for Germany Past Weather in Emsdetten, North Rhine-Westphalia, Germany — Yesterday and Last 2 Weeks

48 °F

Light rain. Partly sunny.

Feels Like: 47 °F
Forecast: 41 / 51 °F
Wind: 3 mph from Northeast

Location: Muenster / Osnabrueck

Current Time: Oct 24, 2016 at 4:16:42 PM

Latest Report: Oct 24, 2016 at 3:20 PM

Visibility: 4 mi

Pressure: 29.92 "Hg

Humidity: 87%

Dew Point: 45 °F

Location of EmsdettenLocation

Past Weather in Emsdetten — Graph


Emsdetten Temperature Yesterday

Maximum temperature yesterday: 52 °F (at 4:50 PM)
Minimum temperature yesterday: 34 °F (at 1:20 AM)
Average temperature yesterday: 40 °F

High & Low Weather Summary for the Past Weeks

High64 °F (Oct 16, 2:50 PM)100% (Oct 10, 2:50 AM)30.27 "Hg (Oct 10, 2:50 AM)
Low32 °F (Oct 11, 2:50 AM)54% (Oct 10, 3:50 PM)29.68 "Hg (Oct 15, 1:20 AM)
Average47 °F88%30.02 "Hg
* Reported Oct 9 3:20 PM — Oct 24 3:20 PM, Emsdetten, Weather by CustomWeather, © 2016

Note: Actual official high and low records may vary slightly from our data, if they occured in-between our weather recording intervals... More about our weather records


Emsdetten Weather History for the Previous 24 Hours

Scroll right to see more
Time TempWeatherWind HumidityBarometerVisibility
3:20 PM
Mon, Oct 24
48 °FLight rain. Partly sunny.3 mph87%29.92 "Hg4 mi
2:50 PM48 °FLight rain. Clear.5 mph82%29.92 "HgN/A
2:20 PM48 °FPassing clouds.5 mph82%29.92 "HgN/A
1:50 PM48 °FPassing clouds.3 mph82%29.92 "HgN/A
1:20 PM48 °FPassing clouds.7 mph82%29.92 "HgN/A
12:50 PM46 °FPassing clouds.6 mph87%29.92 "HgN/A
12:20 PM46 °FPassing clouds.5 mph87%29.95 "HgN/A
11:50 AM46 °FPassing clouds.6 mph87%29.95 "HgN/A
11:20 AM45 °FPassing clouds.5 mph87%29.95 "HgN/A
10:50 AM45 °FPassing clouds.7 mph87%29.95 "HgN/A
10:20 AM43 °FPassing clouds.6 mph93%29.95 "HgN/A
9:50 AM43 °FClear.6 mph93%29.95 "Hg6 mi
9:20 AM43 °FClear.7 mph93%29.95 "Hg5 mi
8:50 AM41 °FClear.3 mph93%29.95 "Hg4 mi
8:20 AM41 °FClear.5 mph93%29.95 "Hg4 mi
7:50 AM41 °FClear.6 mph93%29.95 "Hg4 mi
7:20 AM41 °FClear.6 mph93%29.95 "Hg4 mi
6:50 AM41 °FClear.5 mph93%29.95 "Hg4 mi
6:20 AM41 °FClear.5 mph93%29.92 "Hg4 mi
5:50 AM41 °FClear.5 mph93%29.92 "Hg4 mi
5:20 AM41 °FClear.3 mph93%29.92 "Hg4 mi
4:50 AM39 °FFog.3 mph100%29.95 "Hg4 mi
4:20 AM39 °FFog.5 mph100%29.92 "Hg3 mi
3:50 AM39 °FFog.3 mph100%29.95 "Hg3 mi
3:20 AM39 °FFog.3 mph93%29.92 "Hg1 mi
2:50 AM39 °FFog.5 mph100%29.92 "Hg2 mi
2:20 AM39 °FFog.3 mph93%29.92 "Hg3 mi
1:50 AM39 °FFog.3 mph93%29.92 "Hg3 mi
1:20 AM39 °FFog.5 mph93%29.92 "Hg5 mi
12:50 AM41 °FFog.3 mph93%29.92 "HgN/A
12:20 AM41 °FFog.2 mph93%29.92 "HgN/A
11:50 PM
Sun, Oct 23
41 °FFog.2 mph93%29.92 "Hg4 mi
11:20 PM41 °FFog.2 mph93%29.92 "Hg4 mi
10:50 PM39 °FFog.3 mph100%29.92 "Hg4 mi
10:20 PM39 °FFog.3 mph93%29.92 "Hg4 mi
9:50 PM41 °FFog.2 mph93%29.92 "Hg2 mi
9:20 PM41 °FFog.3 mph93%29.92 "Hg4 mi
8:50 PM41 °FFog.3 mph93%29.92 "Hg5 mi
8:20 PM43 °FFog.2 mph93%29.92 "Hg4 mi
7:50 PM41 °FFog.3 mph93%29.92 "Hg4 mi
7:20 PM41 °FFog.3 mph100%29.92 "Hg1 mi
6:50 PM43 °FFog.2 mph93%29.92 "Hg3 mi
6:20 PM45 °FFog.2 mph93%29.92 "HgN/A
5:50 PM48 °FPassing clouds.2 mph82%29.92 "HgN/A
5:20 PM48 °FPassing clouds.3 mph82%29.92 "HgN/A
4:50 PM52 °FPassing clouds.2 mph67%29.92 "HgN/A
4:20 PM50 °FPassing clouds.3 mph76%29.92 "HgN/A
Weather by CustomWeather, © 2016

See weather overviewHow to use our weather pages